Date String (YYYY-MM-DD hh:mm:ss) UTC,Instrument flags,absolute air pressure of the measurement (hPa),sample flow rate (lpm),inlet stack bypass flow (lpm),air temperature of the measurement (°C),ambient temperature measured by the external sensor (°C),aerosol sample conditioner tube jacket temperature (°C),OPC LED temperature (°C),internal box temperature (°C),relative humidity of the measurement (%),span deviation,mass concentration of particles derived from Lorenz-Mie calculation of OPC scattering (μg/m³),mass concentration of particles derived from Lorenz-Mie calculation of OPC scattering (μg/m³),mass concentration of particles derived from Lorenz-Mie calculation of OPC scattering (μg/m³)
DateTimeUTC,F1_M11,P_M11,Q1_M11,Q2_M11,T1_M11,T2_M11,T3_M11,T4_M11,T5_M11,U1_M11,ZSPAN_M11,X0_M11,X2_M11,X1_M11
2023-07-19 04:00:00,SystemResetWarning,0834.2,5.00,000.00,028.8,024.5,000.0,037.0,030.2,31.8,0000.0,0018.12,0007.05,0005.83
2023-07-19 04:01:00,SystemResetWarning,0834.3,5.01,000.00,028.7,024.6,000.0,037.0,029.9,32.1,0000.0,0018.04,0006.97,0005.81
2023-07-19 04:02:00,SystemResetWarning,0834.4,5.01,000.00,028.6,025.0,000.0,037.0,029.9,32.3,0000.0,0017.95,0006.98,0005.80
2023-07-19 04:03:00,SystemResetWarning,0834.3,4.99,000.00,028.6,025.5,000.0,037.1,030.0,32.4,0000.0,0017.33,0007.01,0005.80
2023-07-19 04:04:00,SystemResetWarning,0834.4,5.00,000.00,028.6,025.9,000.0,037.1,030.1,32.5,0000.0,0017.43,0006.98,0005.79
2023-07-19 04:05:00,SystemResetWarning,0834.4,5.00,000.00,028.6,026.4,000.0,037.1,030.2,32.5,0000.0,0016.97,0006.99,0005.77
2023-07-19 04:06:00,SystemResetWarning,0834.4,5.00,000.00,028.7,026.7,000.0,037.1,030.3,32.6,0000.0,0016.03,0006.94,0005.76
2023-07-19 04:07:00,SystemResetWarning,0834.5,5.00,000.00,028.7,027.0,000.0,037.1,030.4,32.5,0000.0,0015.93,0006.92,0005.77
2023-07-19 04:08:00,SystemResetWarning,0834.5,5.00,000.00,028.7,027.3,000.0,037.1,030.5,32.5,0000.0,0015.82,0006.91,0005.76
2023-07-19 04:09:00,SystemResetWarning,0834.5,5.00,000.00,028.8,027.5,000.0,037.2,030.5,32.5,0000.0,0015.19,0006.89,0005.75
2023-07-19 04:10:00,SystemResetWarning,0834.5,5.00,000.00,028.8,027.7,000.0,037.2,030.6,32.6,0000.0,0015.32,0006.90,0005.74
2023-07-19 04:11:00,SystemResetWarning,0834.5,5.00,000.00,028.9,027.9,000.0,037.2,030.7,32.4,0000.0,0015.21,0006.92,0005.74
2023-07-19 04:12:00,SystemResetWarning,0834.5,4.97,000.00,028.9,027.0,000.0,037.2,030.6,32.6,0000.0,0015.50,0006.97,0005.74
2023-07-19 04:13:00,SystemResetWarning,0834.5,5.01,000.00,028.9,025.7,000.0,037.1,030.4,32.5,0000.0,0016.05,0007.00,0005.76
2023-07-19 04:14:00,SystemResetWarning,0834.4,5.01,000.00,028.8,025.4,000.0,037.0,030.2,32.7,0000.0,0015.66,0006.99,0005.79
2023-07-19 04:15:00,SystemResetWarning,0834.4,5.00,000.00,028.8,025.7,000.0,037.1,030.2,32.7,0000.0,0015.91,0007.08,0005.81
2023-07-19 04:16:00,SystemResetWarning,0834.4,4.99,000.00,028.7,026.1,000.0,037.1,030.2,32.6,0000.0,0016.00,0007.11,0005.83
2023-07-19 04:17:00,SystemResetWarning,0834.4,5.00,000.00,028.8,026.5,000.0,037.2,030.3,32.5,0000.0,0016.09,0007.16,0005.84
2023-07-19 04:18:00,SystemResetWarning,0834.4,5.01,000.00,028.8,026.8,000.0,037.2,030.4,32.3,0000.0,0016.33,0007.21,0005.86
2023-07-19 04:19:00,SystemResetWarning,0834.5,5.01,000.00,028.8,027.1,000.0,037.2,030.5,32.2,0000.0,0015.81,0007.24,0005.90
2023-07-19 04:20:00,SystemResetWarning,0834.5,4.98,000.00,028.9,027.3,000.0,037.2,030.5,32.1,0000.0,0015.55,0007.26,0005.93
2023-07-19 04:21:00,SystemResetWarning,0834.5,5.00,000.00,028.9,027.6,000.0,037.2,030.6,32.2,0000.0,0015.83,0007.25,0005.97
2023-07-19 04:22:00,SystemResetWarning,0834.5,5.01,000.00,028.9,027.8,000.0,037.3,030.7,32.5,0000.0,0015.82,0007.30,0006.00
2023-07-19 04:23:00,SystemResetWarning,0834.5,5.00,000.00,029.0,027.3,000.0,037.2,030.7,32.2,0000.0,0015.45,0007.36,0006.02
2023-07-19 04:24:00,SystemResetWarning,0834.5,4.98,000.00,028.9,025.8,000.0,037.1,030.5,31.9,0000.0,0015.16,0007.46,0006.04
2023-07-19 04:25:00,SystemResetWarning,0834.5,5.01,000.00,028.9,025.4,000.0,037.1,030.3,32.2,0000.0,0015.34,0007.53,0006.05
2023-07-19 04:26:00,SystemResetWarning,0834.4,5.01,000.00,028.8,025.6,000.0,037.1,030.2,32.8,0000.0,0015.33,0007.55,0006.08
2023-07-19 04:27:00,SystemResetWarning,0834.4,4.99,000.00,028.8,026.0,000.0,037.2,030.2,33.6,0000.0,0015.14,0007.55,0006.10
2023-07-19 04:28:00,SystemResetWarning,0834.4,5.00,000.00,028.8,026.3,000.0,037.2,030.3,32.9,0000.0,0015.14,0007.56,0006.12
2023-07-19 04:29:00,SystemResetWarning,0834.5,5.00,000.00,028.8,026.7,000.0,037.2,030.4,32.5,0000.0,0014.94,0007.55,0006.13
2023-07-19 04:30:00,SystemResetWarning,0834.5,5.01,000.00,028.8,027.0,000.0,037.2,030.5,32.4,0000.0,0014.28,0007.51,0006.12
2023-07-19 04:31:00,SystemResetWarning,0834.5,5.00,000.00,028.9,027.3,000.0,037.3,030.6,32.4,0000.0,0014.18,0007.49,0006.11
2023-07-19 04:32:00,SystemResetWarning,0834.5,4.99,000.00,028.9,027.5,000.0,037.3,030.6,32.1,0000.0,0013.64,0007.47,0006.10
2023-07-19 04:33:00,SystemResetWarning,0834.5,5.00,000.00,028.9,027.7,000.0,037.3,030.7,31.8,0000.0,0014.22,0007.44,0006.10
2023-07-19 04:34:00,SystemResetWarning,0834.5,4.99,000.00,029.0,027.5,000.0,037.3,030.7,31.7,0000.0,0014.49,0007.40,0006.09
2023-07-19 04:35:00,SystemResetWarning,0834.4,5.00,000.00,029.0,026.0,000.0,037.2,030.5,32.0,0000.0,0014.15,0007.32,0006.07
2023-07-19 04:36:00,SystemResetWarning,0834.4,5.00,000.00,028.9,025.4,000.0,037.1,030.3,32.2,0000.0,0014.14,0007.27,0006.05
2023-07-19 04:37:00,SystemResetWarning,0834.4,5.01,000.00,028.8,025.5,000.0,037.1,030.2,32.2,0000.0,0013.70,0007.18,0006.02
2023-07-19 04:38:00,SystemResetWarning,0834.5,5.01,000.00,028.8,025.9,000.0,037.2,030.2,32.1,0000.0,0013.97,0007.13,0006.00
2023-07-19 04:39:00,SystemResetWarning,0834.5,4.99,000.00,028.8,026.3,000.0,037.2,030.3,31.8,0000.0,0014.35,0007.09,0006.01
2023-07-19 04:40:00,SystemResetWarning,0834.5,5.00,000.00,028.8,026.6,000.0,037.2,030.4,31.7,0000.0,0014.43,0007.08,0006.02
2023-07-19 04:41:00,SystemResetWarning,0834.8,5.00,000.00,028.8,026.9,000.0,037.3,030.5,31.5,0000.0,0014.55,0007.09,0006.02
2023-07-19 04:42:00,SystemResetWarning,0834.7,5.01,000.00,028.9,027.2,000.0,037.3,030.5,31.7,0000.0,0014.69,0007.11,0006.01
2023-07-19 04:43:00,SystemResetWarning,0834.9,5.00,000.00,028.9,027.4,000.0,037.3,030.6,32.1,0000.0,0014.89,0007.15,0006.00
2023-07-19 04:44:00,SystemResetWarning,0834.6,5.00,000.00,029.0,027.6,000.0,037.3,030.7,32.1,0000.0,0014.99,0007.20,0006.00
2023-07-19 04:45:00,SystemResetWarning,0834.5,5.00,000.00,029.0,027.6,000.0,037.3,030.7,32.0,0000.0,0014.89,0007.19,0005.98
2023-07-19 04:46:00,SystemResetWarning,0834.5,4.98,000.00,029.0,026.2,000.0,037.2,030.6,31.5,0000.0,0015.78,0007.18,0005.97
2023-07-19 04:47:00,SystemResetWarning,0834.4,5.01,000.00,028.9,025.3,000.0,037.1,030.4,31.0,0000.0,0015.54,0007.16,0005.98
2023-07-19 04:48:00,SystemResetWarning,0834.4,5.01,000.00,028.9,025.4,000.0,037.1,030.2,31.1,0000.0,0015.48,0007.18,0005.99
2023-07-19 04:49:00,SystemResetWarning,0834.4,4.98,000.00,028.8,025.7,000.0,037.2,030.2,31.1,0000.0,0016.14,0007.21,0006.01
2023-07-19 04:50:00,SystemResetWarning,0834.4,5.00,000.00,028.8,026.1,000.0,037.2,030.3,31.0,0000.0,0016.57,0007.23,0006.00
2023-07-19 04:51:00,SystemResetWarning,0834.4,5.01,000.00,028.8,026.5,000.0,037.2,030.4,30.9,0000.0,0016.76,0007.21,0005.99
2023-07-19 04:52:00,SystemResetWarning,0834.4,5.01,000.00,028.8,026.9,000.0,037.3,030.5,30.7,0000.0,0017.03,0007.22,0006.00
2023-07-19 04:53:00,SystemResetWarning,0834.4,4.99,000.00,028.9,027.1,000.0,037.3,030.5,30.6,0000.0,0017.17,0007.21,0006.02
2023-07-19 04:54:00,SystemResetWarning,0834.4,5.00,000.00,028.9,027.4,000.0,037.3,030.6,30.5,0000.0,0017.44,0007.16,0006.04
2023-07-19 04:55:00,SystemResetWarning,0834.2,5.00,000.00,028.9,027.6,000.0,037.3,030.7,30.6,0000.0,0017.31,0007.14,0006.05
2023-07-19 04:56:00,SystemResetWarning,0834.1,5.00,000.00,029.0,027.8,000.0,037.4,030.7,30.5,0000.0,0017.32,0007.21,0006.10
2023-07-19 04:57:00,SystemResetWarning,0834.1,5.00,000.00,029.0,027.9,000.0,037.4,030.8,30.5,0000.0,0016.49,0007.23,0006.11
2023-07-19 04:58:00,SystemResetWarning,0834.1,4.99,000.00,029.1,026.8,000.0,037.3,030.7,30.4,0000.0,0016.73,0007.25,0006.11
2023-07-19 04:59:00,SystemResetWarning,0834.2,5.01,000.00,029.0,025.6,000.0,037.2,030.5,30.5,0000.0,0016.93,0007.27,0006.11
